Regional Weather Roundup
Issued by NWS

Home | Current Version | Previous Version | Graphics & Text | Print | Product List | Glossary On
Versions: 1 2 3 4 5 6 7 8 9 10 11 12 13 14 15 16 17 18 19 20 21 22 23 24 25 26 27 28 29 30 31 32 33 34 35 36 37 38 39 40 41 42 43 44 45 46 47 48 49 50
000
ASUS44 KMEG 180110
RWRTN
TENNESSEE HOURLY STATE WEATHER ROUNDUP
NATIONAL WEATHER SERVICE MEMPHIS TN
700 PM CST TUE JAN 17 2017

TNZ002-004-019-021-049-052-054-088>092-180200-
WEST TENNESSEE

CITY           SKY/WX    TMP DP  RH WIND       PRES   REMARKS
MEMPHIS INTL   CLOUDY    50  45  83 CALM      30.17R
NWS MEMPHIS      N/A     49 N/A N/A MISG        N/A
JACKSON        CLOUDY    50  46  86 NW7       30.16R
DYERSBURG      PTCLDY    46  39  76 NW7       30.17R
UNION CITY     MOCLDY    45  45 100 NW8       30.15S
PARIS          CLOUDY    45  39  81 CALM      30.15R
HUNTINGDON     PTCLDY    48  45  87 W5        30.14R
$$

TNZ008-025-027-028-033-062-065-066-180200-
NORTH MIDDLE TENNESSEE

CITY           SKY/WX    TMP DP  RH WIND       PRES   REMARKS
NASHVILLE      CLOUDY    57  44  62 W13G21    30.12R
PORTLAND       CLEAR     52  46  82 W9        30.11R
CLARKSVILLE    CLOUDY    51  43  74 W10       30.13R
SMYRNA         CLOUDY    59  52  77 W9        30.12R
GALLATIN       PTCLDY    57  48  72 SW6       30.13R
CROSSVILLE     LGT RAIN  60  59  96 SW9G20    30.09S FOG
$$

TNZ061-075-076-078-094-096-097-180200-
SOUTH MIDDLE TENNESSEE

CITY           SKY/WX    TMP DP  RH WIND       PRES   REMARKS
FAYETTEVILLE   CLOUDY    64  61  88 SW12G18   30.12S
TULLAHOMA      CLOUDY    63  61  94 SW12      30.12R
WINCHESTER     CLOUDY    64  61  88 W9        30.13R
MCMINNVILLE    CLOUDY    63  63 100 SW14      30.10R
COLUMBIA       CLOUDY   N/A N/A N/A W8        30.11R
SHELBYVILLE    CLOUDY    63  63 100 NW10      30.12R
$$

TNZ017-018-042-046-047-180200-
NORTHEAST TENNESSEE

CITY           SKY/WX    TMP DP  RH WIND       PRES   REMARKS
TRI CITIES     CLOUDY    57  56  96 CALM      30.06F
ELIZABETHTON   CLOUDY    59  57  94 NW5       30.06F
$$

TNZ012-013-036-069-073-074-180200-
CENTRAL EAST TENNESSEE

CITY           SKY/WX    TMP DP  RH WIND       PRES   REMARKS
KNOXVILLE      LGT RAIN  64  58  80 SW14      30.07S
OAK RIDGE      CLOUDY    62  60  93 VRB3      30.08S FOG
GATLINBURG     CLOUDY    66  55  68 W9        30.06S
MORRISTOWN     CLOUDY    64  59  82 W15G23    30.06S
JACKSBORO      CLOUDY    64  59  82 VRB3      30.07F
$$

TNZ083-085-099-180200-
SOUTHEAST TENNESSEE

CITY           SKY/WX    TMP DP  RH WIND       PRES   REMARKS
CHATTANOOGA    CLOUDY    67  58  72 CALM      30.12R
$$

SKY/WX REPORTED AS FAIR MEANS FEW OR NO CLOUDS BELOW
12 THOUSAND FEET.





USA.gov is the U.S. government's official web portal to all federal, state and local government web resources and services.